Dewpoint
59 53 43 41 40 41 34 26 17 20 20 13 4 -1 2 3 -3 -4 -6 2 -2 1 27 23 23 18 14 33 38 48 50 50 49 52 55 59 62 66 68 69 68 68 67 68 71 71 72 74 74 74 74 74 74 74 74 74 74 74 74 74 74 74 74 73 73 73 73 73 73 72 72 72 72 71 71 71 71 71 71 71 71 70 70 70 70 69 70 69 69 68 67 66 67 67 68 68 68
45 40 43 44 41 35 26 21 18 11 17 14 7 1 -4 -7 -13 -15 -13 -12 -11 32 31 29 23 20 33 34 38 50 53 55 56 55 58 62 64 65 69 69 68 68 68 68 68 69 70 73 73 73 73 73 73 73 73 74 74 74 74 74 74 74 74 73 73 73 73 73 73 72 72 71 71 71 71 71 71 71 71 71 70 70 69 70 69 68 68 69 68 66 66 66 67 67 67 68 68
42 47 40 35 29 25 25 25 14 10 2 2 2 -0 -4 -11 -19 -13 -13 -14 24 33 28 32 30 31 29 30 30 44 50 56 58 58 61 63 63 65 67 69 69 68 67 66 66 68 70 72 73 73 73 73 73 73 73 73 73 73 74 73 73 73 73 73 73 73 72 72 72 72 71 71 71 71 70 70 70 70 70 69 69 69 69 69 69 67 67 67 67 66 67 67 67 67 67 67 67
39 43 36 22 17 20 22 20 19 11 5 0 -3 -6 -5 -15 -17 13 21 23 26 24 27 29 26 33 35 36 45 51 53 54 57 57 59 61 64 65 67 69 69 67 67 66 65 67 69 72 73 73 72 73 73 72 72 72 73 73 73 73 73 73 73 73 72 72 72 72 71 71 70 70 70 70 70 70 69 69 68 68 68 68 68 68 68 67 67 66 66 66 67 66 68 68 67 68 69
34 34 27 24 21 23 14 8 8 10 3 -3 -5 2 8 8 19 20 27 26 23 16 23 26 29 39 51 52 50 48 50 53 54 58 60 62 64 66 68 69 68 67 66 65 65 66 70 72 73 73 72 73 73 73 73 73 73 73 73 73 73 73 72 72 72 72 72 71 71 71 71 70 70 70 70 70 70 69 69 69 69 68 68 68 68 67 67 66 66 67 67 67 67 68 68 67 69
21 25 27 23 24 26 24 21 13 2 3 -0 -6 -6 8 12 26 27 30 29 24 22 23 35 32 37 47 54 56 56 57 57 57 60 61 62 65 66 68 69 68 67 67 67 66 68 70 73 72 73 73 73 73 73 73 73 72 73 73 73 73 73 72 72 72 72 71 71 71 71 71 70 70 70 70 70 70 70 69 69 69 69 68 68 67 67 66 66 66 67 67 67 68 67 68 68 68
21 22 22 18 16 19 21 17 11 5 1 -0 -1 -2 0 24 26 28 27 27 25 25 20 26 32 44 51 54 55 60 60 57 58 60 62 64 65 67 68 68 68 67 67 67 67 68 70 72 72 72 72 73 73 73 73 73 73 72 73 73 73 73 73 72 72 72 72 71 71 71 71 71 71 71 71 70 70 70 70 69 69 69 68 67 67 67 66 67 67 68 68 68 68 69 69 68 68
27 22 20 16 10 10 8 7 6 4 2 -2 -1 -5 22 28 26 17 19 26 23 22 25 24 35 37 51 54 55 60 62 60 59 63 63 63 65 67 68 68 68 68 68 68 68 69 73 72 72 72 72 72 72 73 73 72 73 72 72 73 73 73 72 72 72 72 72 72 71 71 71 71 71 71 70 70 70 70 69 69 69 68 68 67 67 67 67 68 70 70 69 69 69 69 68 68 68
17 16 21 20 17 11 8 5 1 -2 -4 -4 -4 4 32 15 20 17 13 6 18 26 27 26 36 43 51 56 57 62 63 64 62 65 63 65 65 67 68 68 67 68 68 68 69 70 71 72 72 72 72 72 72 72 72 72 72 72 72 72 72 72 72 72 72 72 72 72 71 71 71 71 71 71 70 70 70 70 69 69 69 68 68 67 67 68 68 68 70 69 69 68 68 68 67 67 67
13 15 19 19 18 14 7 5 4 -0 -4 -7 -6 -2 1 5 8 11 10 6 16 19 23 31 33 49 51 57 59 61 63 65 65 63 65 64 65 65 67 69 68 68 69 69 68 69 70 73 72 72 72 72 72 72 72 72 72 72 72 72 72 72 72 72 72 72 71 71 71 71 71 71 71 71 71 70 70 70 70 69 69 68 68 67 68 67 67 68 69 68 68 68 68 68 67 66 67
12 12 12 12 15 9 3 -1 -0 1 0 -1 -7 -2 3 12 13 10 7 5 5 20 26 31 35 47 51 58 61 65 66 67 64 63 67 64 64 64 65 67 69 69 69 67 67 69 70 71 73 72 72 72 72 72 73 72 72 72 72 72 72 72 72 72 72 72 71 71 71 71 72 71 71 71 70 70 70 70 70 69 69 69 68 68 68 67 67 68 69 68 68 68 68 67 67 67 67
16 13 12 7 8 8 7 3 -4 -6 -5 -1 -10 1 1 4 11 8 5 3 3 15 21 34 33 45 55 56 60 63 65 66 66 64 63 64 67 66 64 66 68 69 69 67 68 68 69 70 71 72 72 72 72 72 72 72 72 72 72 72 72 72 72 72 72 72 72 71 71 71 71 71 71 70 70 71 70 70 70 69 69 69 68 68 67 68 68 68 68 68 68 68 67 67 67 67 66
15 14 13 10 6 1 -2 -3 -3 1 -4 -4 1 5 2 4 5 1 2 4 5 6 18 30 41 48 49 54 61 63 64 64 65 67 67 62 66 63 63 64 67 68 68 68 67 68 69 68 70 70 71 73 73 73 73 73 72 72 72 72 72 72 72 72 72 72 71 71 71 71 71 71 70 70 70 70 70 70 70 69 68 68 68 68 68 69 68 68 68 68 68 68 67 67 67 67 66
12 12 12 11 10 8 4 -1 -4 -5 -4 -2 6 5 5 4 4 2 1 2 4 6 8 29 39 48 52 59 60 61 61 65 67 66 66 63 65 62 63 64 65 65 67 68 67 67 67 67 68 70 70 70 70 71 72 72 72 72 72 72 72 72 72 72 72 71 71 71 70 70 70 70 70 69 69 69 69 70 70 70 69 68 68 68 68 69 68 68 68 68 68 68 68 67 67 66 66
9 9 8 7 5 6 5 2 -4 -5 -1 5 6 2 8 9 3 2 2 1 1 4 5 23 46 44 50 54 57 58 59 63 66 65 65 63 63 64 63 63 64 62 62 67 67 67 66 67 69 71 70 69 69 70 71 71 72 72 72 72 72 72 71 71 71 71 71 70 69 70 69 69 69 69 69 69 68 70 70 70 69 69 68 68 68 68 68 68 68 68 68 68 68 67 65 66 66
12 11 13 14 6 4 3 -0 -1 -3 -3 -1 5 3 5 4 4 7 6 6 3 4 5 26 37 43 51 48 55 57 61 63 66 64 64 67 66 63 62 62 63 62 63 64 68 67 68 69 69 69 68 69 69 70 70 70 71 71 71 71 71 71 71 71 71 71 70 70 69 69 69 68 68 68 69 68 68 68 70 70 69 69 69 68 68 69 68 68 68 68 68 69 68 66 66 66 66
13 12 12 11 8 5 1 -3 -4 -4 -8 8 5 5 7 6 6 11 12 11 10 5 6 28 33 46 42 43 55 61 63 65 66 64 63 64 65 63 65 68 68 67 64 67 68 68 67 68 68 68 68 68 69 69 70 70 70 70 70 71 71 71 71 71 71 70 70 70 69 69 69 69 69 69 68 68 68 69 70 70 69 69 69 68 68 69 68 68 69 68 68 68 68 67 66 66 66
13 13 9 7 7 4 -0 -4 -4 0 -1 2 8 9 8 8 5 8 17 16 12 12 12 25 45 49 53 58 61 62 63 64 65 62 62 62 62 62 63 64 66 65 67 66 67 67 67 67 67 67 67 68 68 70 69 69 70 69 69 69 69 70 70 70 70 70 69 69 69 68 69 69 69 69 70 68 68 69 68 69 69 69 68 68 69 69 68 69 68 68 68 68 68 67 66 65 65
12 12 10 6 3 0 -1 -2 -2 -0 -2 2 7 10 9 6 8 10 11 13 18 13 11 34 44 54 57 60 61 61 63 65 65 64 62 62 62 62 64 64 64 66 65 64 66 66 66 66 66 67 67 68 68 69 69 70 69 69 69 69 68 69 70 69 69 68 68 68 68 68 70 70 67 68 69 68 69 68 67 68 69 69 68 69 68 68 68 68 68 68 68 68 67 67 66 63 62
11 10 8 5 4 1 -0 -2 -4 4 4 2 3 6 7 5 8 12 15 17 18 15 7 21 43 52 56 60 60 63 64 64 65 64 62 62 62 63 63 64 63 63 64 65 64 65 65 66 66 66 67 67 68 68 69 69 69 69 69 69 68 69 69 69 67 67 67 67 67 70 70 68 68 70 68 69 67 68 68 69 68 68 68 69 68 67 67 68 68 68 68 68 67 65 62 59 57
10 6 3 3 2 -1 -0 -1 2 3 3 3 4 5 6 5 6 11 11 15 16 16 11 8 47 50 55 59 60 63 64 64 64 64 64 62 63 64 63 64 63 62 63 63 64 63 64 66 66 66 67 66 67 68 69 68 69 68 68 68 68 69 69 69 68 67 67 67 67 70 68 68 68 68 68 68 68 68 67 68 68 67 68 67 68 67 67 65 67 66 66 66 63 61 58 58 59
6 5 3 1 -1 -3 -2 -0 2 2 4 6 6 5 4 2 7 8 8 13 17 17 12 9 13 41 56 58 60 63 64 63 63 63 63 64 64 64 64 63 63 62 59 57 59 61 62 64 65 65 66 66 68 68 68 68 69 68 68 69 70 68 67 69 68 68 67 67 67 68 68 67 67 67 69 68 68 69 68 64 66 66 67 66 68 66 68 68 66 65 65 63 62 61 60 60 64
5 5 5 3 3 3 2 2 3 4 4 4 3 2 3 6 6 6 10 18 18 51 48 49 33 49 56 62 62 63 62 63 62 61 60 62 63 63 63 61 60 58 58 55 55 54 55 60 64 64 64 65 67 67 67 68 68 68 68 69 68 68 69 68 67 69 68 67 67 67 67 67 68 68 67 67 68 67 67 67 67 66 68 69 67 66 67 68 69 67 67 65 62 60 59 61 62
1 3 2 2 3 1 1 -1 2 3 4 4 2 4 4 5 4 5 8 17 23 43 53 53 52 53 59 62 63 63 62 62 62 61 62 61 64 64 63 62 59 58 57 56 55 58 55 51 55 65 63 64 64 64 66 67 68 69 69 69 68 70 69 68 69 67 68 67 68 67 68 68 67 68 67 67 67 67 67 68 67 66 67 67 67 66 67 67 67 66 65 65 63 58 57 57 59
-0 -1 3 2 -1 3 3 1 -1 1 3 2 3 4 5 5 2 14 20 19 26 50 52 51 53 55 58 61 61 61 61 61 61 61 61 62 63 64 62 63 61 59 56 57 58 52 50 53 50 51 57 60 64 62 65 66 67 67 67 67 68 68 68 69 68 68 66 68 68 67 67 68 67 66 66 67 68 68 69 67 66 66 67 68 68 67 67 65 64 63 63 64 62 59 58 58 57
-0 2 2 1 -2 -2 1 0 -1 -0 -1 2 3 5 5 4 5 9 11 22 31 48 50 50 52 53 55 58 60 60 61 61 59 60 61 63 62 63 61 59 58 57 57 57 56 56 51 50 48 53 52 52 54 61 63 64 66 66 66 67 67 68 68 68 67 67 69 66 66 66 67 66 67 66 66 67 67 67 68 67 67 67 67 68 68 67 67 65 64 62 61 61 58 57 56 57 59
3 2 1 0 -4 -5 -1 -1 -0 -1 2 3 4 4 4 4 8 7 12 30 31 30 43 47 46 50 56 58 60 61 60 60 60 61 61 61 61 62 62 59 56 56 58 56 56 54 57 47 49 48 51 61 50 53 59 61 62 64 64 67 67 66 67 67 67 68 68 67 66 66 66 67 68 68 67 67 67 67 67 66 66 67 67 67 68 67 67 65 65 66 64 62 60 61 59 58 57
-3 -4 1 3 -0 -2 -3 -1 2 4 4 4 4 4 4 4 9 6 20 29 30 30 43 43 46 47 55 56 58 59 60 61 60 61 59 59 60 60 61 58 58 57 57 58 58 54 58 52 48 54 57 63 68 53 61 58 61 58 63 64 65 65 66 67 67 67 68 69 66 66 67 67 66 68 67 66 66 66 66 66 66 66 66 67 67 67 66 65 65 61 61 65 63 63 61 59 60
-1 4 5 5 6 3 1 -0 2 6 3 3 5 3 3 7 8 7 18 27 27 41 46 43 47 48 49 52 58 59 59 60 59 59 60 62 61 59 59 61 59 58 59 61 56 58 61 60 57 55 55 64 60 60 58 59 65 57 64 60 64 64 66 66 66 65 68 66 69 67 67 66 66 66 67 65 65 66 66 66 66 65 65 68 68 67 66 65 64 66 64 63 62 62 61 59 57
3 3 3 0 -1 -0 2 1 2 1 0 2 4 4 3 5 5 12 25 26 27 34 37 45 43 44 49 52 55 58 59 58 58 61 62 63 62 60 60 61 60 58 57 57 60 61 59 61 61 59 57 54 62 57 67 59 60 58 64 62 64 65 64 65 66 66 66 67 67 67 68 67 68 69 65 65 66 65 65 64 66 66 67 67 68 68 67 65 65 64 62 63 61 58 58 58 58
3 1 -2 -0 -1 1 1 1 2 -1 -2 5 5 6 3 4 5 16 22 22 25 29 38 35 41 42 48 51 53 55 55 59 60 61 61 62 62 60 61 61 61 59 58 58 60 59 61 61 61 60 63 61 59 59 59 60 63 60 56 59 61 67 63 63 67 65 66 66 66 68 66 64 66 65 66 66 66 65 65 65 67 66 66 66 66 67 66 65 64 64 61 60 61 58 54 61 56
3 -0 1 -1 -1 -2 -1 3 0 -1 3 7 6 9 2 -1 3 14 15 17 23 27 38 34 36 44 46 47 52 53 55 57 60 60 59 61 62 59 61 61 62 59 60 59 61 61 59 62 63 62 63 64 64 64 64 63 63 62 61 60 62 64 64 60 64 65 64 66 66 66 65 66 66 65 66 67 66 65 64 64 65 66 66 66 65 65 65 65 64 64 62 61 61 54 53 53 55
4 1 13 5 -1 -5 1 3 2 3 4 6 5 1 0 3 5 12 14 14 16 21 35 37 38 48 49 46 49 51 55 57 57 56 57 58 56 59 59 61 61 61 60 60 60 63 62 62 63 64 63 64 64 64 63 64 65 61 58 61 56 59 64 64 60 62 64 65 65 65 65 68 64 65 65 64 65 65 66 65 65 65 65 67 66 67 66 67 66 64 66 63 63 64 60 54 56
7 0 2 5 3 0 2 3 3 4 1 3 5 2 2 9 12 12 12 11 11 15 20 45 46 44 48 50 49 49 54 55 55 53 55 57 53 57 58 60 60 60 61 61 62 62 62 61 62 64 64 65 65 65 63 66 60 62 62 58 62 58 59 58 58 57 60 63 65 65 65 65 66 65 65 66 65 65 65 65 65 65 65 66 65 65 65 66 66 65 65 66 63 63 63 61 62
11 11 8 4 2 3 1 3 6 6 3 6 7 5 3 5 11 12 10 10 11 17 17 45 47 45 46 47 45 48 52 51 50 51 54 56 56 52 56 60 62 60 61 62 62 63 61 63 63 65 65 65 65 64 65 61 63 59 60 58 58 60 57 60 61 58 59 60 61 63 63 65 65 65 66 66 65 66 66 65 64 65 65 65 64 63 64 65 65 65 64 64 64 64 63 63 63
14 11 8 1 7 2 -3 4 7 8 9 5 4 4 2 7 8 11 15 13 16 17 27 25 51 46 46 45 43 47 49 50 49 52 53 55 54 57 57 59 65 61 62 62 62 62 62 64 64 65 65 64 64 64 61 59 60 60 59 60 57 57 56 57 61 57 60 60 63 62 63 67 63 65 64 64 66 65 65 65 66 65 65 64 64 63 63 64 65 63 63 63 62 63 62 64 65
15 14 9 5 5 5 1 7 9 9 9 8 6 7 6 7 9 14 14 17 18 18 24 30 23 43 46 42 43 49 52 51 48 49 52 52 54 55 61 59 62 63 63 63 62 62 62 62 63 63 64 64 62 59 60 59 59 58 61 58 57 62 55 58 58 58 57 56 56 54 57 59 58 59 60 63 65 65 65 64 65 63 63 64 64 62 63 65 65 65 64 62 62 61 62 63 63
17 15 10 6 5 6 1 7 8 11 17 10 12 8 8 8 12 13 16 18 15 20 21 28 23 22 25 32 43 48 50 49 45 49 50 51 49 58 63 61 61 60 62 62 62 63 63 64 63 63 63 63 63 63 66 64 61 54 60 56 55 57 50 55 55 57 57 58 59 59 60 59 62 61 63 62 60 61 62 64 64 64 63 63 63 63 62 64 64 63 64 63 63 62 62 63 63
19 14 9 7 5 3 7 14 12 11 17 15 9 8 9 11 10 11 17 19 23 24 25 25 28 26 25 24 45 46 48 47 47 48 50 50 52 58 59 62 62 62 62 62 62 64 64 64 63 63 62 62 62 63 62 61 61 62 64 60 61 53 53 55 52 54 56 53 63 58 62 64 63 58 59 60 62 62 61 63 62 63 63 64 64 64 64 64 64 64 63 62 62 63 62 63 63
16 16 11 7 5 4 9 21 15 15 16 14 10 9 16 18 17 19 21 18 24 26 23 27 29 28 28 26 40 46 48 48 48 49 49 48 49 58 58 58 61 62 62 62 62 63 63 63 63 63 61 61 62 62 60 60 61 61 61 58 58 56 53 56 56 58 58 56 55 58 59 61 59 58 56 59 56 58 61 63 61 62 61 63 63 63 63 63 63 63 63 63 62 61 61 61 63
19 17 9 8 3 3 3 13 20 28 25 26 17 19 16 19 15 17 21 18 23 21 18 20 23 21 33 40 39 47 49 49 49 49 49 48 50 55 55 56 59 58 59 60 62 62 63 63 63 62 60 61 61 61 61 60 60 60 59 58 55 56 57 57 57 57 57 58 57 60 61 61 60 59 59 56 55 58 59 59 61 61 62 62 62 61 62 62 62 63 63 63 62 61 60 61 62
15 20 18 13 14 15 11 23 18 21 19 25 20 15 13 15 16 14 14 18 19 20 18 16 20 26 24 24 38 45 50 49 50 49 49 50 53 54 54 54 56 56 58 60 62 63 63 63 63 61 60 60 60 61 60 60 59 59 59 56 56 56 57 58 56 56 59 58 55 61 56 57 57 58 56 56 55 57 60 61 60 60 61 62 64 61 60 60 61 62 62 62 62 61 61 61 60
15 17 17 15 12 17 16 16 18 19 16 21 27 18 15 13 11 14 15 14 17 23 22 20 20 21 20 22 25 30 50 47 49 52 50 50 53 55 54 53 53 53 56 60 62 63 62 63 62 60 59 59 59 60 59 59 58 57 57 55 55 56 56 58 58 59 57 57 59 58 59 61 57 59 60 58 58 59 58 58 60 59 59 58 59 60 58 58 54 55 61 61 61 61 62 60 59
11 26 15 13 14 16 18 16 18 19 21 23 21 17 16 14 15 15 14 16 17 20 22 24 19 22 22 23 23 34 32 48 53 53 52 54 53 54 54 55 56 58 57 60 62 63 62 63 62 60 59 59 59 60 58 58 57 56 56 55 55 56 57 56 58 59 60 58 60 58 57 61 59 59 60 59 58 57 59 59 58 57 57 55 54 53 55 56 57 56 58 59 60 60 60 60 60
14 24 16 14 15 20 14 10 14 17 20 13 16 16 15 14 16 15 14 16 20 21 24 22 19 17 19 23 20 21 33 36 48 51 53 54 53 55 59 58 58 58 58 61 61 62 62 63 62 60 59 59 60 60 57 57 57 56 56 56 56 56 55 56 55 55 58 59 60 61 59 56 57 58 56 57 57 56 56 56 55 54 52 51 49 50 52 54 56 58 58 58 57 58 59 61 60
17 11 14 17 17 16 17 16 13 19 18 17 17 21 13 15 19 15 13 14 18 21 23 21 21 23 22 23 28 33 30 34 35 37 45 51 54 57 58 59 59 59 57 60 61 62 61 63 61 60 58 58 60 59 57 57 58 56 57 58 58 55 55 54 54 56 58 59 58 59 59 59 56 59 57 55 55 52 55 55 53 54 56 53 52 51 53 56 56 55 56 57 58 57 56 56 56
17 19 18 17 15 18 16 19 19 22 17 17 19 19 15 12 16 15 17 20 21 25 23 25 25 25 24 32 30 29 25 27 27 30 40 48 51 54 57 57 58 58 59 61 62 61 61 62 61 59 58 58 59 59 57 57 57 55 56 57 57 54 55 56 55 56 57 58 57 58 59 57 58 57 58 58 56 55 56 56 57 54 56 55 53 52 54 51 55 57 55 55 55 56 56 56 55
12 12 15 14 14 18 20 18 19 18 15 17 15 17 19 12 14 23 22 21 20 24 21 24 26 24 26 33 26 26 28 30 29 31 35 48 53 52 56 58 58 57 59 60 61 62 60 61 61 59 59 59 59 58 57 57 56 55 57 57 57 55 55 55 54 55 55 56 57 57 59 57 56 57 57 58 58 56 57 56 57 56 56 57 56 56 55 53 53 54 56 56 55 55 56 55 54
8 10 10 16 13 17 17 20 16 16 16 18 16 16 12 12 18 20 17 19 19 21 19 23 24 25 30 27 29 30 30 30 33 38 45 47 49 53 56 53 55 59 59 60 62 62 60 61 61 59 58 59 59 58 57 57 57 55 55 56 58 56 55 56 55 56 55 57 57 57 56 56 56 55 58 56 57 58 58 58 57 56 56 56 56 52 52 54 54 54 53 52 54 53 53 54 53
7 8 13 12 13 15 16 14 19 20 20 20 22 17 14 14 15 17 16 20 20 21 24 25 25 32 32 26 29 31 36 35 40 43 46 49 50 49 54 57 54 58 59 58 60 62 60 60 61 58 58 59 58 57 57 57 57 56 57 57 58 56 57 58 56 55 56 57 57 57 57 57 55 56 56 58 57 57 57 59 58 56 56 56 56 56 56 55 56 49 53 54 54 55 55 54 54
7 10 9 15 15 17 17 14 14 14 14 18 14 17 14 14 14 19 21 18 18 19 18 27 32 32 34 27 29 33 39 44 47 47 47 50 53 55 57 55 62 58 59 59 60 60 60 59 61 59 58 59 58 57 57 57 57 57 57 57 58 57 57 58 57 57 56 58 57 57 58 58 57 55 56 57 56 59 58 58 58 57 56 56 56 56 56 55 55 51 53 55 54 54 52 53 53
7 9 11 13 18 17 13 16 16 15 14 17 18 17 16 26 23 20 22 19 17 17 21 27 28 27 31 33 35 37 41 45 48 49 49 50 52 54 56 57 58 58 58 61 59 60 60 59 59 58 58 58 58 57 57 57 57 57 57 57 57 57 56 56 57 56 57 60 58 57 58 58 57 57 56 57 56 58 57 57 57 57 56 56 56 54 55 54 55 54 53 54 52 52 55 55 54
13 8 13 13 16 14 17 19 20 22 16 13 17 21 18 26 19 21 20 18 15 16 20 21 24 29 35 36 38 39 42 45 48 48 48 50 50 52 53 55 57 57 58 60 61 59 59 59 59 59 58 58 58 56 57 57 57 57 57 58 56 58 56 56 56 58 57 59 60 58 58 59 59 58 56 56 56 58 57 57 55 56 57 56 55 54 54 55 55 55 55 54 54 54 53 50 53
3 5 6 9 10 16 18 12 17 17 15 17 17 17 11 8 15 18 17 17 15 15 18 21 31 34 35 37 40 41 43 45 47 48 49 49 49 49 50 52 52 54 57 58 58 60 61 60 58 57 57 57 57 56 56 57 57 58 57 58 58 58 57 57 57 58 57 56 60 59 59 59 60 58 56 56 56 57 57 56 56 55 56 57 56 55 54 54 54 55 54 54 53 54 53 53 52
2 3 3 4 10 12 14 16 11 11 12 11 16 8 9 7 14 15 17 17 19 17 17 22 26 29 35 37 39 42 44 46 46 48 48 48 49 50 52 53 50 52 56 57 54 58 61 60 58 57 56 58 59 56 56 56 58 58 58 58 59 59 60 59 58 59 58 56 57 58 59 58 60 59 57 57 56 57 57 56 56 55 55 55 56 55 55 54 53 54 53 54 53 53 53 53 53
2 3 3 2 8 14 11 16 12 14 12 14 16 8 9 13 24 22 19 19 20 18 18 21 24 29 36 39 40 41 44 45 45 46 47 49 50 51 51 53 52 52 53 56 56 56 56 57 57 56 57 56 58 59 58 57 56 58 59 59 59 57 59 61 62 59 60 58 57 58 58 58 58 57 58 57 55 55 56 55 55 55 54 53 53 54 53 53 54 54 53 53 52 54 51 51 49
10 6 7 8 19 14 7 19 8 13 12 12 11 10 19 30 20 20 22 21 29 28 23 25 27 33 36 39 42 43 43 45 47 47 48 48 49 50 50 52 52 52 52 54 55 54 55 55 54 53 57 58 58 59 60 58 59 60 60 61 61 61 61 61 61 61 60 60 61 60 60 59 56 57 58 57 55 54 53 54 53 54 52 53 52 53 53 52 52 53 51 53 50 50 50 50 50
14 14 18 29 17 15 15 14 10 18 10 12 9 11 18 27 29 25 26 27 28 26 20 27 32 35 39 42 43 43 42 43 45 46 47 48 48 48 48 50 51 51 51 52 52 52 53 55 52 53 52 53 55 54 55 55 58 60 59 59 62 61 60 60 61 61 59 59 61 61 61 62 60 59 56 56 55 55 54 54 52 51 52 51 52 51 52 53 51 52 51 54 50 48 49 48 49